Weather History for Ft Lauderdale, FL

Change the Weather History Date:

Monday, November 26, 2012

  Actual Average Record
Temperature  
Mean Temperature 70 °F 74 °F  
Max Temperature 79 °F 80 °F 87 °F (1955)
Min Temperature 60 °F 68 °F 35 °F (1950)
Degree Days  
Heating Degree Days 0 0  
Month to date heating degree days 2 0  
Since 1 July heating degree days 2 0  
Cooling Degree Days 5 9  
Month to date cooling degree days 164 283  
Year to date cooling degree days 4321 4477  
Growing Degree Days 20 (Base 50)    
Moisture  
Dew Point 58 °F    
Average Humidity 66    
Maximum Humidity 84    
Minimum Humidity 48    
Precipitation  
Precipitation 0.00 in 0.10 in 2.50 in (1920)
Month to date precipitation 0.49 2.83  
Year to date precipitation 59.78 59.31  
Snow  
Snow 0.00 in - - ()
Month to date snowfall 0.0  
Since 1 July snowfall 0.0  
Since 1 September snowfall 0.0  
Snow Depth 0.00 in    
Sea Level Pressure  
Sea Level Pressure 30.15 in    
Wind  
Wind Speed 5 mph (ESE)    
Max Wind Speed 13 mph    
Max Gust Speed 17 mph    
Visibility 10 miles    
Events      
T = Trace of Precipitation, MM = Missing Value Source: NWS Daily Summary

Daily Weather History Graph

Daily Weather History Graph

Search for Another Location

Airport:

Trip Planner

Search our weather history database for the weather conditions in past years. The results will help you decide how hot, cold, wet, or windy it might be!

Date:

Astronomy

Nov. 26, 2012 Rise Set
Actual Time 6:47 AM EST 5:28 PM EST
Civil Twilight 6:22 AM EST 5:53 PM EST
Nautical Twilight 5:54 AM EST 6:21 PM EST
Astronomical Twilight 5:26 AM EST 6:49 PM EST
Moon 4:15 PM EST (11/26) 5:02 AM EST (11/26)
Length of Visible Light 11h 30m
Length of Day
10h 41m
Waxing Gibbous, 97% of the Moon is Illuminated
Nov 26
Waxing Gibbous
Nov 28
Full
Dec 6
Last Quarter
Dec 13
New
Dec 20
First Quarter

Hourly Weather History & Observations

Time (EST) Temp. Dew Point Humidity Pressure Visibility Wind Dir Wind Speed Gust Speed Precip Events Conditions
12:53 AM 61.0 °F 55.9 °F 83% 30.12 in 10.0 mi Calm Calm - N/A   Scattered Clouds
1:53 AM 64.0 °F 54.0 °F 70% 30.12 in 10.0 mi Calm Calm - N/A   Scattered Clouds
2:53 AM 62.1 °F 54.0 °F 75% 30.11 in 10.0 mi NNW 3.5 mph - N/A   Mostly Cloudy
3:53 AM 63.0 °F 54.0 °F 72% 30.11 in 10.0 mi Calm Calm - N/A   Mostly Cloudy
4:53 AM 62.1 °F 55.0 °F 78% 30.12 in 10.0 mi Calm Calm - N/A   Partly Cloudy
5:53 AM 62.1 °F 55.0 °F 78% 30.14 in 10.0 mi Calm Calm - N/A   Partly Cloudy
6:53 AM 63.0 °F 55.9 °F 78% 30.15 in 10.0 mi Calm Calm - N/A   Scattered Clouds
7:53 AM 66.0 °F 57.9 °F 75% 30.17 in 10.0 mi North 4.6 mph - N/A   Partly Cloudy
8:53 AM 71.1 °F 59.0 °F 66% 30.18 in 10.0 mi North 4.6 mph - N/A   Mostly Cloudy
9:53 AM 77.0 °F 60.1 °F 56% 30.19 in 10.0 mi East 3.5 mph - N/A   Partly Cloudy
10:53 AM 77.0 °F 60.1 °F 56% 30.19 in 10.0 mi SE 6.9 mph - N/A   Partly Cloudy
11:53 AM 78.1 °F 61.0 °F 56% 30.19 in 10.0 mi SSE 11.5 mph - N/A   Mostly Cloudy
12:53 PM 78.1 °F 60.1 °F 54% 30.16 in 10.0 mi SE 11.5 mph - N/A   Partly Cloudy
1:53 PM 78.1 °F 57.9 °F 50% 30.14 in 10.0 mi SE 8.1 mph - N/A   Partly Cloudy
2:53 PM 78.1 °F 57.9 °F 50% 30.13 in 10.0 mi East 9.2 mph - N/A   Partly Cloudy
3:53 PM 77.0 °F 57.9 °F 52% 30.13 in 10.0 mi ESE 9.2 mph - N/A   Partly Cloudy
4:53 PM 75.0 °F 60.1 °F 60% 30.13 in 10.0 mi SE 9.2 mph - N/A   Partly Cloudy
5:53 PM 72.0 °F 60.1 °F 66% 30.14 in 10.0 mi SE 6.9 mph - N/A   Partly Cloudy
6:53 PM 71.1 °F 60.1 °F 68% 30.16 in 10.0 mi SE 6.9 mph - N/A   Scattered Clouds
7:53 PM 73.0 °F 61.0 °F 66% 30.17 in 10.0 mi SE 6.9 mph - N/A   Mostly Cloudy
8:53 PM 71.1 °F 60.1 °F 68% 30.19 in 10.0 mi SE 6.9 mph - N/A   Scattered Clouds
9:53 PM 71.1 °F 60.1 °F 68% 30.19 in 10.0 mi SE 4.6 mph - N/A   Partly Cloudy
10:53 PM 71.1 °F 61.0 °F 70% 30.19 in 10.0 mi SE 5.8 mph - N/A   Scattered Clouds
11:53 PM 71.1 °F 60.1 °F 68% 30.18 in 10.0 mi SE 8.1 mph - N/A   Scattered Clouds